Wind_Speed
19 20 22 21 21 19 19 16 17 16 15 15 15 15 16 16 15 16 18 19 18 19 22 23 20 19 17 16 16 15 17 17 18 23 21 24 31 35 35 29 30 28 36
19 18 22 22 21 18 13 14 17 18 18 18 18 18 16 18 18 19 21 24 25 26 26 26 26 24 22 20 19 19 20 20 18 17 22 23 27 24 29 31 28 26 27
16 14 17 21 18 16 14 13 18 19 18 18 17 19 22 20 23 23 25 24 27 27 27 28 26 26 27 26 24 23 22 23 22 20 18 21 20 25 27 26 30 29 27
18 18 18 18 18 17 16 17 17 19 22 23 24 24 21 19 21 23 25 29 30 30 30 29 28 29 28 27 27 29 28 27 25 25 23 23 24 26 23 24 24 26 28
21 24 26 26 26 23 22 21 21 20 20 20 21 23 25 25 25 28 30 31 33 33 33 32 32 31 30 29 29 30 30 31 32 29 29 28 29 27 26 24 23 23 27
26 31 38 35 31 28 25 23 25 24 22 23 25 26 27 27 29 31 33 32 31 28 28 27 27 25 23 24 26 29 32 33 35 35 33 32 34 31 28 27 25 23 24
28 34 35 34 33 33 30 25 21 23 25 25 26 28 28 29 31 32 32 30 27 26 28 28 28 28 27 26 26 26 30 33 35 37 37 36 36 37 33 31 28 25 26
30 28 38 46 41 42 38 29 17 22 26 27 28 30 29 29 29 30 31 31 30 30 33 34 34 33 33 32 33 31 30 32 33 33 35 39 40 40 38 36 33 31 29
26 25 27 28 20 23 23 22 22 24 29 31 31 29 28 29 30 32 32 34 36 37 37 39 40 40 41 41 37 35 34 33 32 31 32 34 39 41 41 39 39 37 34
25 20 22 19 14 20 27 24 26 31 30 29 29 29 30 31 33 33 35 36 38 40 43 46 47 45 44 43 41 39 38 38 35 33 34 36 37 41 41 40 43 41 39
24 25 24 27 24 26 29 24 25 28 28 29 30 32 33 34 37 39 39 39 39 40 41 42 45 48 48 45 44 42 40 37 36 36 35 38 38 38 42 42 42 43 42
20 23 25 28 30 28 28 27 27 27 28 30 33 35 38 41 43 45 45 45 45 44 43 42 44 45 47 49 50 49 45 43 39 37 39 40 41 41 41 42 42 42 41
23 23 26 27 26 28 30 30 32 32 33 34 36 40 43 45 45 45 46 46 47 49 49 51 52 55 56 57 57 56 56 55 52 46 42 42 45 45 43 41 41 43 43
26 24 24 25 27 29 31 32 33 34 35 37 40 42 43 43 43 44 45 47 49 53 55 57 58 60 63 65 64 62 60 60 60 59 54 47 46 47 46 44 41 42 44
23 24 25 27 28 30 31 32 32 35 37 40 41 42 43 42 43 46 49 51 54 56 55 53 52 53 55 55 58 60 59 56 53 52 52 55 52 49 49 49 45 42 42
27 30 32 30 31 31 30 32 34 37 41 40 41 41 43 45 48 50 53 54 53 53 54 55 53 49 50 48 49 51 52 53 53 52 50 48 50 52 52 51 49 47 45
29 30 30 33 33 32 34 36 39 39 39 40 41 43 45 45 48 49 48 47 49 49 50 52 55 57 57 57 55 52 50 50 50 53 53 51 49 48 53 52 51 48 47
30 32 34 32 32 34 38 41 42 40 40 40 42 42 43 44 42 40 41 43 47 49 52 54 54 55 57 57 56 52 48 44 42 45 46 51 52 46 49 53 51 50 48
33 35 35 34 33 37 40 43 43 42 41 42 42 41 40 39 37 35 37 41 46 50 54 54 56 57 56 52 43 36 32 33 34 40 40 40 46 47 43 51 50 49 48
36 36 37 38 38 42 43 44 40 38 39 39 39 38 37 35 36 37 40 45 50 52 55 54 55 55 44 36 29 27 25 24 30 31 32 34 38 42 43 42 49 48 47
39 40 42 40 42 43 43 37 35 36 36 35 35 32 30 32 35 40 44 49 51 54 53 54 49 45 37 32 28 29 24 25 27 25 26 27 30 36 39 40 41 46 45
46 49 48 45 41 34 31 32 34 33 33 32 30 29 31 34 39 43 47 51 52 52 47 49 45 40 34 29 27 25 18 21 24 23 22 23 23 27 33 33 35 39 42
48 44 39 31 29 31 28 30 29 29 29 29 30 31 34 37 40 44 47 47 48 44 44 45 43 35 28 25 25 20 17 19 20 21 20 20 23 23 22 27 27 32 37
30 31 34 32 26 25 27 26 26 27 29 30 30 32 34 36 40 42 44 42 43 44 41 42 39 33 23 22 20 21 18 17 18 19 18 18 18 19 17 21 23 27 32
32 30 28 26 26 23 22 21 25 28 28 29 30 32 33 36 36 41 40 40 41 41 40 38 37 34 21 18 18 19 19 18 20 20 21 22 21 20 18 16 19 24 28
28 25 23 24 23 23 21 23 26 27 26 28 28 28 32 34 37 40 36 38 39 39 37 36 37 32 26 18 18 17 18 20 24 24 25 24 22 19 17 19 21 21 23
Wind_Direction
335 343 343 341 333 317 273 271 280 291 298 299 301 307 310 309 314 319 324 323 322 324 326 324 322 324 329 329 322 317 309 300 290 283 287 275 266 262 266 264 262 276 257
343 348 351 346 348 344 299 280 296 301 303 305 309 312 314 313 314 314 316 316 318 318 318 314 312 314 314 315 316 318 314 305 305 302 299 286 274 277 263 271 276 287 272
340 354 347 336 339 334 334 318 304 303 303 304 303 305 304 304 305 306 311 310 307 307 308 306 303 300 300 306 307 303 300 301 303 300 294 290 282 274 271 267 266 266 281
328 328 328 324 326 327 324 312 300 296 297 301 304 306 308 312 304 304 307 310 312 309 304 300 297 296 298 298 294 294 295 293 293 293 290 286 282 283 281 269 270 267 259
323 320 322 315 318 314 318 313 309 304 301 303 302 303 303 304 307 303 301 304 308 307 304 300 298 297 298 298 293 288 285 283 284 283 284 283 279 280 282 283 270 269 259
321 322 315 307 304 305 307 307 301 298 297 300 301 300 303 311 305 304 307 308 305 302 300 301 300 302 300 295 293 290 285 279 275 274 275 275 277 277 278 275 274 270 248
310 317 326 303 297 294 295 292 291 295 299 299 300 303 309 308 307 307 306 305 306 307 306 307 308 311 308 303 291 281 282 282 276 272 271 273 272 271 270 272 271 264 258
321 319 323 310 296 285 278 274 283 293 299 299 301 305 308 308 308 307 306 306 306 308 310 311 312 312 310 304 300 298 291 279 279 280 277 274 271 270 269 264 266 263 257
311 315 331 335 326 337 319 310 276 296 302 303 303 305 308 308 307 306 305 304 305 305 306 307 309 308 304 303 300 297 292 286 283 276 276 272 274 274 271 266 261 260 259
301 297 304 307 325 323 315 312 305 298 297 302 303 306 306 305 303 305 305 306 307 307 308 307 306 305 304 302 299 298 296 292 287 285 280 273 270 270 273 269 263 261 261
289 288 301 304 302 302 309 308 301 296 303 302 301 303 307 306 307 307 308 307 306 306 306 306 305 303 303 301 298 296 295 291 286 282 275 275 272 267 267 270 267 262 261
297 304 302 300 302 307 304 305 301 303 302 305 309 310 312 313 313 311 309 309 309 306 303 300 296 295 294 294 294 294 291 289 285 278 273 269 269 268 265 262 265 261 259
300 296 295 295 298 303 302 303 305 305 305 305 308 308 308 309 309 307 305 305 303 302 301 300 298 297 295 294 292 289 287 286 283 280 274 269 266 265 263 263 258 257 258
290 291 291 294 295 295 295 296 298 299 302 304 305 305 304 304 304 304 302 302 301 301 301 300 297 295 293 291 290 289 286 281 278 277 275 267 263 261 262 261 258 257 253
285 290 296 292 290 290 292 296 300 303 304 304 303 302 302 302 301 301 301 300 300 299 299 298 296 294 292 291 290 288 287 285 282 279 276 272 263 259 258 258 257 253 253
288 293 299 299 298 295 296 299 302 303 304 302 302 303 303 304 305 305 304 305 305 304 304 302 299 296 294 291 288 284 283 281 278 277 277 273 264 255 255 254 254 252 250
294 296 298 303 304 304 306 307 306 304 302 302 303 303 305 306 308 308 308 308 308 307 307 306 305 305 303 300 296 292 286 281 277 276 273 270 264 261 249 251 253 249 249
296 300 303 300 301 303 306 308 307 304 303 304 305 306 308 309 310 311 311 312 313 313 311 310 309 306 303 299 295 292 291 287 281 278 274 265 261 258 252 247 247 249 245
300 299 297 295 300 306 307 308 307 304 305 307 308 308 309 310 310 311 314 316 317 317 318 318 317 314 313 306 299 291 288 285 282 292 277 268 258 253 256 250 245 245 246
298 297 299 293 295 303 305 304 301 304 308 308 309 310 312 312 313 316 319 322 322 323 324 322 323 319 320 317 315 308 301 297 298 298 284 272 261 252 254 254 249 241 242
296 294 292 288 299 303 303 302 305 309 308 308 309 310 309 311 315 317 320 324 325 326 325 324 326 321 319 319 315 319 305 304 312 307 297 284 270 258 255 255 251 242 239
304 301 286 279 296 297 302 309 308 306 307 309 310 307 307 311 315 320 324 327 326 326 325 326 329 323 324 322 323 324 319 326 324 316 314 299 288 269 259 254 252 245 241
296 299 302 296 295 305 307 303 302 305 307 309 311 309 308 310 316 324 328 327 327 327 328 329 329 330 326 325 337 342 330 327 335 334 331 319 309 281 272 258 252 251 244
310 306 301 299 302 308 303 299 306 308 311 314 313 312 313 318 326 327 328 330 333 333 331 333 332 331 331 335 336 341 340 334 331 327 327 329 333 329 297 270 256 250 250
304 306 309 311 308 301 301 306 310 312 313 317 320 320 321 326 328 329 330 332 331 334 336 337 338 335 342 341 331 336 341 340 338 332 330 322 313 312 313 306 278 258 252
311 315 316 309 304 304 306 310 310 314 321 320 322 327 327 328 331 331 331 334 334 337 342 342 337 338 332 332 334 331 331 331 328 332 332 332 332 330 329 327 289 267 254
Height
5899 5896 5893 5890 5887 5885 5884 5885 5886 5886 5885 5883 5881 5880 5878 5876 5874 5872 5870 5868 5867 5864 5862 5860 5858 5855 5854 5852 5849 5847 5844 5843 5844 5843 5839 5838 5840 5841 5842 5842 5843 5844 5842
5895 5892 5889 5886 5884 5881 5881 5882 5883 5883 5881 5880 5879 5876 5875 5871 5870 5868 5866 5864 5861 5859 5857 5855 5852 5850 5848 5846 5844 5842 5840 5838 5837 5835 5832 5833 5832 5832 5834 5835 5833 5832 5833
5890 5887 5885 5884 5883 5880 5879 5879 5879 5877 5876 5875 5873 5872 5870 5869 5865 5863 5861 5859 5857 5854 5851 5848 5846 5844 5841 5840 5838 5836 5835 5832 5831 5829 5828 5827 5825 5826 5829 5829 5829 5828 5825
5887 5885 5883 5880 5878 5875 5874 5874 5872 5871 5870 5869 5867 5865 5863 5862 5860 5858 5856 5852 5849 5846 5843 5841 5839 5836 5834 5831 5829 5827 5826 5824 5823 5822 5821 5820 5819 5818 5819 5819 5819 5819 5819
5885 5882 5880 5878 5875 5873 5871 5868 5866 5865 5864 5863 5862 5861 5859 5858 5856 5853 5850 5846 5843 5839 5836 5834 5832 5829 5827 5825 5823 5820 5819 5817 5814 5814 5812 5810 5809 5810 5810 5809 5808 5808 5808
5882 5879 5877 5874 5870 5869 5867 5865 5862 5860 5859 5858 5856 5855 5853 5852 5849 5844 5841 5838 5835 5832 5829 5825 5823 5821 5820 5816 5813 5811 5809 5807 5806 5803 5803 5800 5797 5799 5800 5800 5801 5800 5800
5874 5872 5868 5864 5863 5861 5859 5857 5856 5855 5853 5851 5850 5847 5847 5842 5838 5834 5830 5828 5826 5823 5821 5818 5814 5812 5810 5808 5804 5801 5798 5795 5793 5792 5791 5790 5790 5787 5788 5788 5791 5792 5792
5869 5864 5859 5854 5850 5848 5848 5847 5847 5847 5846 5843 5840 5839 5836 5832 5829 5825 5822 5819 5817 5813 5809 5806 5804 5801 5799 5796 5793 5790 5788 5785 5782 5781 5782 5781 5779 5777 5778 5777 5779 5780 5782
5864 5859 5856 5851 5844 5846 5843 5838 5839 5838 5837 5834 5831 5831 5827 5824 5820 5817 5815 5810 5806 5802 5799 5795 5792 5790 5787 5783 5782 5781 5776 5773 5772 5771 5770 5769 5767 5765 5765 5767 5766 5768 5769
5859 5855 5852 5847 5842 5841 5838 5834 5831 5832 5830 5826 5824 5822 5819 5816 5811 5808 5804 5801 5796 5791 5785 5781 5778 5778 5774 5771 5769 5767 5765 5761 5760 5759 5757 5757 5756 5755 5752 5754 5754 5755 5756
5850 5848 5843 5839 5837 5835 5832 5827 5827 5825 5822 5819 5816 5815 5810 5807 5801 5797 5793 5790 5786 5782 5777 5772 5766 5762 5759 5758 5755 5753 5751 5750 5747 5745 5744 5743 5742 5742 5741 5741 5741 5742 5743
5842 5838 5835 5833 5830 5827 5824 5823 5820 5818 5815 5812 5807 5802 5798 5793 5788 5784 5779 5775 5771 5769 5766 5763 5758 5753 5748 5744 5741 5738 5736 5734 5733 5732 5730 5729 5727 5728 5728 5728 5728 5729 5730
5833 5831 5829 5827 5824 5820 5818 5815 5812 5809 5806 5802 5797 5793 5789 5784 5779 5776 5770 5765 5761 5756 5750 5746 5742 5737 5733 5728 5724 5722 5718 5716 5715 5715 5715 5714 5713 5713 5713 5715 5714 5716 5716
5826 5824 5823 5821 5818 5814 5812 5808 5805 5801 5796 5792 5788 5785 5780 5775 5770 5765 5761 5756 5750 5744 5738 5732 5726 5721 5715 5709 5704 5699 5697 5696 5694 5693 5694 5697 5696 5695 5697 5697 5700 5701 5703
5819 5817 5816 5813 5810 5807 5804 5799 5796 5791 5787 5784 5779 5775 5769 5764 5759 5754 5749 5743 5737 5731 5724 5718 5712 5706 5699 5693 5686 5681 5676 5674 5673 5672 5673 5673 5676 5678 5679 5680 5683 5686 5688
5813 5809 5807 5804 5801 5798 5795 5792 5788 5783 5777 5773 5769 5763 5758 5752 5745 5740 5734 5726 5720 5713 5706 5699 5693 5688 5683 5677 5672 5666 5660 5657 5654 5652 5652 5653 5653 5656 5660 5662 5665 5668 5672
5804 5801 5798 5793 5789 5786 5783 5781 5778 5774 5768 5761 5757 5753 5748 5742 5735 5727 5719 5713 5707 5700 5693 5686 5677 5669 5663 5656 5650 5645 5641 5636 5635 5633 5632 5632 5634 5636 5639 5643 5646 5650 5655
5794 5791 5787 5784 5781 5778 5774 5771 5766 5762 5758 5752 5747 5741 5735 5730 5724 5718 5710 5703 5695 5687 5680 5671 5663 5653 5644 5636 5629 5624 5621 5617 5615 5613 5611 5611 5613 5616 5620 5622 5627 5632 5638
5786 5782 5779 5776 5772 5768 5764 5760 5755 5750 5745 5742 5737 5731 5724 5719 5714 5709 5703 5694 5685 5677 5666 5656 5646 5636 5626 5616 5609 5606 5604 5602 5601 5597 5593 5593 5594 5598 5602 5605 5609 5615 5621
5775 5771 5767 5764 5761 5757 5753 5748 5743 5739 5735 5730 5725 5719 5714 5708 5703 5697 5691 5684 5675 5663 5653 5643 5633 5622 5613 5605 5600 5597 5594 5591 5589 5584 5581 5580 5580 5582 5586 5589 5593 5598 5605
5762 5760 5756 5752 5749 5745 5741 5738 5733 5729 5725 5720 5715 5710 5706 5701 5695 5689 5682 5673 5663 5653 5642 5632 5623 5613 5606 5599 5594 5589 5586 5584 5580 5575 5572 5569 5568 5569 5573 5575 5579 5583 5590
5751 5748 5745 5741 5738 5734 5731 5727 5723 5720 5716 5711 5707 5703 5698 5693 5687 5680 5672 5662 5653 5644 5635 5625 5616 5607 5599 5594 5589 5583 5580 5577 5573 5569 5566 5563 5561 5560 5562 5563 5566 5571 5576
5741 5739 5735 5730 5728 5723 5720 5717 5715 5712 5708 5704 5699 5695 5691 5685 5678 5670 5662 5653 5644 5635 5627 5618 5609 5602 5595 5589 5584 5580 5577 5574 5570 5566 5562 5559 5555 5554 5553 5555 5557 5561 5565
5730 5728 5725 5721 5716 5712 5713 5710 5708 5704 5699 5695 5692 5687 5682 5676 5669 5662 5655 5647 5638 5629 5621 5612 5604 5598 5591 5586 5582 5578 5574 5571 5568 5564 5560 5557 5553 5550 5548 5549 5550 5552 5555
5721 5717 5713 5708 5707 5707 5706 5703 5699 5695 5692 5688 5684 5680 5674 5669 5663 5656 5648 5641 5633 5625 5616 5607 5599 5593 5588 5584 5581 5577 5572 5569 5565 5561 5557 5553 5549 5546 5544 5543 5543 5544 5545
5712 5708 5705 5704 5702 5700 5698 5695 5692 5689 5686 5682 5677 5672 5668 5662 5656 5649 5642 5636 5628 5620 5611 5604 5598 5592 5586 5582 5579 5575 5571 5567 5563 5559 5554 5549 5546 5542 5539 5537 5535 5534 5535